Weather History for Lancaster, PA

Change the Weather History Date:

Tuesday, April 8, 2014

  Actual Average Record
Temperature  
Mean Temperature 52 °F -  
Max Temperature 61 °F 60 °F 84 °F (1991)
Min Temperature 45 °F 39 °F 22 °F (1982)
Degree Days  
Heating Degree Days 12    
Growing Degree Days 2 (Base 50)    
Moisture  
Dew Point 46 °F    
Average Humidity 79    
Maximum Humidity 97    
Minimum Humidity 44    
Precipitation  
Precipitation 0.00 in - - ()
Sea Level Pressure  
Sea Level Pressure 29.54 in    
Wind  
Wind Speed 9 mph (WSW)    
Max Wind Speed 26 mph    
Max Gust Speed 33 mph    
Visibility 7 miles    
Events Rain    
Averages and records for this station are not official NWS values.
T = Trace of Precipitation, MM = Missing Value Source: NWS Daily Summary

Daily Weather History Graph

Daily Weather History Graph

Search for Another Location

Airport:

Trip Planner

Search our weather history database for the weather conditions in past years. The results will help you decide how hot, cold, wet, or windy it might be!

Date:

Astronomy

Apr. 08, 2014 Rise Set
Actual Time 6:37 AM EDT 7:36 PM EDT
Civil Twilight 6:10 AM EDT 8:04 PM EDT
Nautical Twilight 5:37 AM EDT 8:37 PM EDT
Astronomical Twilight 5:03 AM EDT 9:11 PM EDT
Moon 1:27 PM EDT (4/8) 2:49 AM EDT (4/8)
Length of Visible Light 13h 54m
Length of Day
12h 58m
Waxing Gibbous, 62% of the Moon is Illuminated
Apr 8
Waxing Gibbous
Apr 15
Full
Apr 22
Last Quarter
Apr 29
New
May 6
First Quarter

Hourly Weather History & Observations

Time (EDT) Temp. Windchill Dew Point Humidity Pressure Visibility Wind Dir Wind Speed Gust Speed Precip Events Conditions
12:09 AM 48.9 °F - 48.0 °F 97% 29.59 in 1.5 mi ESE 8.1 mph - N/A   Overcast
12:35 AM 48.9 °F - 48.0 °F 97% 29.58 in 0.8 mi ESE 9.2 mph - N/A   Mist
12:53 AM 50.0 °F - 48.9 °F 96% 29.59 in 0.8 mi SE 8.1 mph - N/A   Mist
1:29 AM 51.1 °F - 50.0 °F 96% 29.55 in 2.0 mi SE 4.6 mph - N/A   Overcast
1:38 AM 52.0 °F - 51.1 °F 97% 29.55 in 4.0 mi South 4.6 mph - N/A   Overcast
1:53 AM 52.0 °F - 51.1 °F 97% 29.55 in 6.0 mi South 5.8 mph - 0.00 in   Overcast
2:18 AM 53.1 °F - 52.0 °F 96% 29.53 in 7.0 mi South 8.1 mph - 0.00 in Rain Light Rain
2:44 AM 54.0 °F - 52.0 °F 93% 29.53 in 8.0 mi SSW 8.1 mph - 0.00 in   Overcast
2:53 AM 54.0 °F - 52.0 °F 93% 29.52 in 9.0 mi SW 6.9 mph - 0.00 in   Overcast
3:23 AM 54.0 °F - 52.0 °F 93% 29.50 in 10.0 mi SSW 9.2 mph - N/A   Overcast
3:53 AM 54.0 °F - 51.1 °F 90% 29.49 in 10.0 mi SSW 9.2 mph - N/A   Overcast
4:29 AM 54.0 °F - 51.1 °F 90% 29.47 in 10.0 mi SSW 9.2 mph - N/A   Overcast
5:53 AM 54.0 °F - 52.0 °F 93% 29.47 in 7.0 mi WSW 8.1 mph - N/A   Overcast
6:53 AM 53.1 °F - 51.1 °F 93% 29.46 in 4.0 mi West 9.2 mph - N/A   Overcast
7:14 AM 51.1 °F - 50.0 °F 96% 29.47 in 2.0 mi WNW 9.2 mph - N/A   Overcast
7:28 AM 50.0 °F - 48.9 °F 96% 29.47 in 1.5 mi West 8.1 mph - N/A   Overcast
8:32 AM 51.1 °F - 50.0 °F 96% 29.48 in 2.0 mi WSW 4.6 mph - N/A   Overcast
8:44 AM 51.1 °F - 50.0 °F 96% 29.47 in 2.5 mi West 3.5 mph - N/A   Overcast
8:53 AM 52.0 °F - 50.0 °F 93% 29.48 in 2.5 mi SW 4.6 mph - N/A   Overcast
9:03 AM 52.0 °F - 50.0 °F 93% 29.47 in 3.0 mi WSW 4.6 mph - N/A   Overcast
9:32 AM 53.1 °F - 51.1 °F 93% 29.48 in 4.0 mi WNW 9.2 mph - N/A   Overcast
9:53 AM 55.9 °F - 51.1 °F 84% 29.49 in 8.0 mi West 11.5 mph - N/A   Overcast
10:09 AM 55.9 °F - 50.0 °F 80% 29.49 in 9.0 mi West 15.0 mph - N/A   Mostly Cloudy
10:53 AM 57.9 °F - 46.9 °F 67% 29.49 in 10.0 mi West 16.1 mph 25.3 mph N/A   Partly Cloudy
11:53 AM 57.9 °F - 39.9 °F 51% 29.49 in 10.0 mi West 24.2 mph 32.2 mph N/A   Mostly Cloudy
12:53 PM 59.0 °F - 39.9 °F 49% 29.50 in 10.0 mi West 26.5 mph 33.4 mph N/A   Mostly Cloudy
1:53 PM 60.1 °F - 39.0 °F 46% 29.53 in 10.0 mi West 25.3 mph 32.2 mph N/A   Scattered Clouds
2:53 PM 60.1 °F - 37.9 °F 44% 29.55 in 10.0 mi WNW 21.9 mph 32.2 mph N/A   Partly Cloudy
3:53 PM 57.9 °F - 37.0 °F 46% 29.56 in 10.0 mi NW 17.3 mph 25.3 mph N/A   Mostly Cloudy
4:53 PM 57.9 °F - 37.0 °F 46% 29.57 in 10.0 mi WNW 17.3 mph 29.9 mph N/A   Clear
5:53 PM 55.9 °F - 36.0 °F 47% 29.59 in 10.0 mi NW 19.6 mph 28.8 mph N/A   Clear
6:53 PM 54.0 °F - 35.1 °F 49% 29.62 in 10.0 mi WNW 17.3 mph - N/A   Clear
7:53 PM 50.0 °F - 36.0 °F 59% 29.65 in 10.0 mi WNW 11.5 mph - N/A   Clear
8:53 PM 46.9 °F - 35.1 °F 63% 29.67 in 10.0 mi WNW 8.1 mph - N/A   Clear
9:53 PM 48.0 °F - 35.1 °F 61% 29.68 in 10.0 mi West 4.6 mph - N/A   Clear
10:53 PM 45.0 °F 43.5 °F 35.1 °F 68% 29.67 in 10.0 mi WNW 3.5 mph - N/A   Clear
11:53 PM 46.0 °F 44.8 °F 35.1 °F 66% 29.67 in 10.0 mi WNW 3.5 mph - N/A   Clear